Location: *
(45.1961°N, 1.9694°E)
Time: 22:52:14
(UTC+00:00)

Cosmos 1697 Rocket - Pass Details

Date: 25 August 2019
Orbit: 831 x 845 km, 71.0° (Epoch: 20 September)

Event Time Altitude Azimuth Distance (km) Brightness Sun altitude
Rises 19:31:39 0° 339° (NNW) 3,414 6.6 -8.9°
Reaches altitude 10° 19:34:21 10° 348° (NNW) 2,476 5.7 -9.3°
Maximum altitude 19:39:31 35° 54° (NE) 1,344 3.5 -10.1°
Enters shadow 19:43:48 14° 115° (ESE) 2,185 4.2 -10.8°
